{"data":{"norad_id":67065,"epoch":"2026-09-20T15:49:30.515808Z","epoch_age_seconds":94811,"freshness":"FRESH","line1":"1 67065U 25295G   26263.65938097 -.00000109  00000+0  33055-4 0  9993","line2":"2 67065  49.9999  42.8065 0000717  82.7894 277.3059 13.29326006 38201","mean_motion":13.29326006,"eccentricity":7.17e-5,"inclination_deg":49.9999,"raan_deg":42.8065,"arg_perigee_deg":82.7894,"mean_anomaly_deg":277.3059,"bstar":3.3055e-5,"rev_number":3820,"period_min":108.32557201924,"perigee_km":1148.7668315009,"apogee_km":1149.8462669059,"semimajor_km":7527.4435492034,"source":"CELESTRAK","updated_at":"2026-09-21T09:00:16.410305Z"}}